Location: Blairvadach
(56.2780°N, 6.9720°W)
Time: 13:52:02
(UTC+01:00)

Envisat - Pass Details

Date: 24 February 2019
Orbit: 764 x 766 km, 98.1° (Epoch: 21 October)

Event Time Altitude Azimuth Distance (km) Brightness Sun altitude
Rises 06:42:38 0° 24° (NNE) 3,246 6.5 -7.7°
Reaches altitude 10° 06:45:43 10° 43° (NE) 2,314 6.0 -7.3°
Maximum altitude 06:49:08 18° 86° (E) 1,825 6.3 -6.8°
Drops below altitude 10° 06:52:32 10° 128° (SE) 2,303 6.6 -6.4°
Sets 06:55:35 0° 147° (SSE) 3,224 6.9 -5.9°
